Terminal Aerodrome Forecast
Issued by NWS

Home | Current Version | Previous Version | Text Only | Print | Product List | Glossary On
Versions: 1 2 3 4 5 6 7 8 9 10 11 12 13 14 15 16 17 18 19 20 21 22 23 24 25 26 27 28 29 30 31 32 33 34 35 36 37 38 39
110
FTUS45 KSLC 132347
TAFLGU
TAF
KLGU 132347Z 1400/1424 VRB04KT 5SM HZ SCT010
     FM140600 VRB04KT 2SM BR VCSH OVC006
     FM141200 VRB03KT 2SM -SN BR SCT003 BKN006
     FM141700 VRB03KT 4SM BR VCSH SCT006 BKN012=

USA.gov is the U.S. government's official web portal to all federal, state and local government web resources and services.